Location: Beang
(6.6177°N, 10.9863°W)
Time: 21:55:43
(UTC+00:00)

H-2A R/B - Pass Details

Date: 07 June 2020
Orbit: 530 x 652 km, 98.3° (Epoch: 10 July)

Event Time Altitude Azimuth Distance (km) Brightness Sun altitude
Rises 04:57:46 0° 30° (NNE) 2,947 7.0 -21.1°
Reaches altitude 10° 05:00:12 10° 41° (NE) 2,045 6.2 -20.6°
Maximum altitude 05:04:05 29° 101° (ESE) 1,181 4.5 -19.8°
Drops below altitude 10° 05:07:59 10° 162° (SSE) 2,048 5.1 -18.9°
Sets 05:10:25 0° 173° (S) 2,952 5.8 -18.4°
